Regional Weather Roundup
Issued by NWS Jackson, KY

Home | Current Version | Previous Version | Graphics & Text | Print | Product List | Glossary On
Versions: 1 2 3 4 5 6 7 8 9 10 11 12 13 14 15 16 17 18 19 20 21 22 23 24 25 26 27 28 29 30 31 32 33 34 35 36 37 38 39 40 41 42 43 44 45 46 47 48 49 50
575
ASUS43 KJKL 291610
RWRJKL

EAST KENTUCKY HOURLY WEATHER ROUNDUP
NATIONAL WEATHER SERVICE JACKSON KY
1200 PM EDT WED MAR 29 2017

NOTE: "FAIR" INDICATES FEW OR NO CLOUDS BELOW 12,000 FEET WITH
NO SIGNIFICANT WEATHER AND/OR OBSTRUCTIONS TO VISIBILITY.

* THESE REPORTS ARE NOT UNDER NWS QUALITY CONTROL AND MAY NOT
  REPORT WEATHER SUCH AS PRECIPITATION AND FOG.

KYZ079-080-083-085-087-088-110-112-115-119-120-291700
...EASTERN KENTUCKY...

CITY           SKY/WX    TMP DP  RH WIND       PRES   REMARKS
JACKSON        CLOUDY    56  48  74 CALM      30.14F
LONDON         MOSUNNY   63  50  62 E6        30.11F
SOMERSET*      CLOUDY    63  52  67 E8        30.11S
MONTICELLO*    CLOUDY    64  55  72 VRB7      30.11S
WILLIAMSBURG*  CLOUDY    64  54  68 E3        30.10S
MIDDLESBORO*   SUNNY     67  51  56 SE6       30.10F
HARLAN APT*    MOSUNNY   64  50  59 NE3       30.11F
PIKE CO APT*   CLOUDY    55  50  82 N6        30.16S
BIG SANDY APT* CLOUDY    56  49  78 NE7       30.17S
MOREHEAD APT*  CLOUDY    55  45  67 E6G12     30.19S
ASHLAND*       CLOUDY    54  46  76 NE5       30.18F
$$

KYZ035-036-041-042-044-050-067-078-099-291700
...CENTRAL KENTUCKY...

CITY           SKY/WX    TMP DP  RH WIND       PRES   REMARKS
MT STERLING*   CLOUDY    55  46  71 E10       30.17F
FLEMING/MASON* CLOUDY    50  43  78 E9        30.19F
DANVILLE*      CLOUDY    55  50  82 E10       30.13F
LEXINGTON      CLOUDY    56  46  69 E14       30.14F
FRANKFORT      CLOUDY    54  45  71 NE12      30.13F
LOUISVILLE     CLOUDY    56  46  69 NE9       30.15R
LEBANON*       CLOUDY    55  50  82 NE7       30.13S
GLASGOW*       MOSUNNY   65  54  68 NE9       30.08S
BOWLING GREEN  MOSUNNY   66  55  67 NE8       30.08R
$$

KYZ091>093-OHZ055-061-077-WVZ005-015-034-035-042-291700
...SOUTHERN OHIO/WEST VIRGINIA...

CITY           SKY/WX    TMP DP  RH WIND       PRES   REMARKS
COVINGTON      MOSUNNY   51  39  63 NE12      30.17F
COLUMBUS       MOSUNNY   54  41  61 NE12G21   30.21F
DAYTON         MOSUNNY   50  39  66 E12       30.22S
WILMINGTON     CLOUDY    45  40  82 E10       30.21R
HUNTINGTON     CLOUDY    52  44  74 NE5       30.18F
CHARLESTON     CLOUDY    53  44  71 NW3       30.18S
PINEVILLE*     CLOUDY    59  45  60 MISG      30.20S
BECKLEY        CLOUDY    52  44  74 N6        30.17R
BLUEFIELD      MOSUNNY   55  43  63 SE7       30.15S
LOGAN CO APT*  CLOUDY    54  48  82 CALM      30.16S
$$

VAZ002-007-008-TNZ017-027-036-066-071-291700
...SOUTHWEST VIRGINIA/EAST TENNESSEE...

CITY           SKY/WX    TMP DP  RH WIND       PRES   REMARKS
WISE*          CLOUDY    59  48  67 NE3       30.15F
JONESVILLE*      N/A     66  52  59 E3        30.13S
ABINGDON*      SUNNY     64  50  61 N3        30.11F
BRISTOL        MOSUNNY   68  51  54 CALM      30.10F
MORRISTOWN*    SUNNY     66  54  63 S7        30.08F
SEVIERVILLE*   SUNNY     64  52  63 CALM      30.07F
KNOXVILLE      MOSUNNY   68  53  58 N6        30.07F
LAFOLLETTE*    MOSUNNY   66  54  63 CALM      30.12S
OAK RIDGE      SUNNY     69  51  52 E6        30.09S
CROSSVILLE     SUNNY     64  52  64 SE7       30.09S
NASHVILLE      PTSUNNY   70  53  54 S7        30.07R
$$

...KEY TO REMARKS...
VSB - VISIBILITY IN MILES
WCI - WIND CHILL INDEX
HX  - HEAT INDEX

$$




USA.gov is the U.S. government's official web portal to all federal, state and local government web resources and services.